Weather History for KBLH - May, 2013

Change the Weather History Date:

Monday, May 13, 2013

  Actual Average Record
Temperature  
Mean Temperature 88 °F -  
Max Temperature 106 °F 93 °F 107 °F (2012)
Min Temperature 70 °F 63 °F 39 °F (1999)
Cooling Degree Days 23    
Growing Degree Days 38 (Base 50)    
Moisture  
Dew Point 32 °F    
Average Humidity 14    
Maximum Humidity 24    
Minimum Humidity 7    
Precipitation  
Precipitation 0.00 in - - ()
Sea Level Pressure  
Sea Level Pressure 29.85 in    
Wind  
Wind Speed 5 mph (South)    
Max Wind Speed 13 mph    
Max Gust Speed 23 mph    
Visibility 10 miles    
Events      
Averages and records for this station are not official NWS values.
T = Trace of Precipitation, MM = Missing Value Source: NWS Daily Summary

Daily Weather History Graph

Daily Weather History Graph

Search for Another Location

Airport or City:

Trip Planner

Search our weather history database for the weather conditions in past years. The results will help you decide how hot, cold, wet, or windy it might be!

Date:

Astronomy

May. 13, 2013 Rise Set
Actual Time 5:39 AM PDT 7:31 PM PDT
Civil Twilight 5:12 AM PDT 7:58 PM PDT
Nautical Twilight 4:39 AM PDT 8:32 PM PDT
Astronomical Twilight 4:03 AM PDT 9:07 PM PDT
Moon 8:30 AM PDT (5/13) 10:43 PM PDT (5/13)
Length of Visible Light 14h 46m
Length of Day
13h 51m
Waxing Crescent, 13% of the Moon is Illuminated
May 13
Waxing Crescent
May 17
First Quarter
May 24
Full
May 31
Last Quarter
Jun 8
New

Hourly Weather History & Observations

Time (PDT) Temp. Dew Point Humidity Pressure Visibility Wind Dir Wind Speed Gust Speed Precip Events Conditions
12:52 AM 79.0 °F 39.0 °F 24% 29.88 in 10.0 mi South 6.9 mph - N/A   Clear
1:52 AM 79.0 °F 32.0 °F 18% 29.87 in 10.0 mi Calm Calm - N/A   Clear
2:52 AM 72.0 °F 27.0 °F 19% 29.87 in 10.0 mi NNE 5.8 mph - N/A   Clear
3:52 AM 73.9 °F 30.0 °F 20% 29.87 in 10.0 mi NNW 6.9 mph - N/A   Clear
4:52 AM 73.0 °F 30.0 °F 20% 29.87 in 10.0 mi WNW 5.8 mph - N/A   Clear
5:52 AM 70.0 °F 30.0 °F 23% 29.90 in 10.0 mi Calm Calm - N/A   Clear
6:52 AM 73.0 °F 28.9 °F 20% 29.92 in 10.0 mi Calm Calm - N/A   Clear
7:52 AM 80.1 °F 32.0 °F 17% 29.92 in 10.0 mi Calm Calm - N/A   Clear
8:52 AM 87.1 °F 34.0 °F 15% 29.93 in 10.0 mi Calm Calm - N/A   Clear
9:52 AM 89.1 °F 41.0 °F 19% 29.94 in 10.0 mi SE 3.5 mph - N/A   Clear
10:52 AM 96.1 °F 37.0 °F 13% 29.93 in 10.0 mi South 6.9 mph - N/A   Clear
11:52 AM 100.0 °F 33.1 °F 10% 29.91 in 10.0 mi SSE 5.8 mph - N/A   Clear
1:52 PM 105.1 °F 33.1 °F 8% 29.86 in 10.0 mi SSE 12.7 mph 17.3 mph N/A   Clear
2:52 PM 106.0 °F 33.1 °F 8% 29.84 in 10.0 mi SE 12.7 mph 23.0 mph N/A   Clear
3:52 PM 106.0 °F 30.9 °F 7% 29.81 in 10.0 mi ESE 10.4 mph - N/A   Clear
5:52 PM 105.1 °F 28.0 °F 7% 29.77 in 10.0 mi SE 6.9 mph - N/A   Clear
6:52 PM 102.9 °F 30.9 °F 8% 29.76 in 10.0 mi SE 5.8 mph - N/A   Clear
7:52 PM 97.0 °F 34.0 °F 11% 29.77 in 10.0 mi SSW 3.5 mph - N/A   Clear
8:52 PM 93.0 °F 32.0 °F 12% 29.77 in 10.0 mi WSW 4.6 mph - N/A   Clear
9:52 PM 93.0 °F 28.0 °F 10% 29.78 in 10.0 mi WSW 9.2 mph - N/A   Clear
10:52 PM 93.9 °F 28.0 °F 10% 29.78 in 10.0 mi WSW 11.5 mph - N/A   Clear
11:52 PM 84.9 °F 33.1 °F 16% 29.78 in 10.0 mi SE 8.1 mph - N/A   Clear